OCN307 GCTS-EDDF

Flight info

Callsign OCN307
Flight time 4h 19m
Altitude 36000
Route KONBA UN866 BEXAL/N0425F380 DCT LIGRA DCT ADSAD DCT PINOX DCT TOSDI DCT ZMR DCT NUBLO DCT RONSI DCT DELOG DCT PEXOD DCT DIDIG DCT ARDOD UN873 OBATO UM163 TSU UN858 OQQAL DCT RANUX/N0438F390 DCT VALEK DCT LUTAX DCT DIK T856 NIVNU T847 IMCOM IMCOM1A
Aircraft A320/M-SDE2E3FGIJ1LORWXYZ/HB1

Departure

Time 2026-05-07 15:57
Airport Tenerife Sur Airport (GCTS)

Arrival

Time 2026-05-07 20:16
Airport Frankfurt Main Airport (EDDF)
Time Latitude Longitude Altitude Speed Heading
2026-05-07 15:18 28.04752 -16.57579 207 ft 0 kts 341°
2026-05-07 15:48 28.04751 -16.57579 212 ft 2 kts 341°
2026-05-07 15:48 28.04727 -16.57570 210 ft 4 kts 341°
2026-05-07 15:48 28.04703 -16.57557 211 ft 4 kts 318°
2026-05-07 15:49 28.04690 -16.57535 210 ft 4 kts 260°
2026-05-07 15:49 28.04691 -16.57528 208 ft 0 kts 249°
2026-05-07 15:52 28.04677 -16.57570 209 ft 11 kts 249°
2026-05-07 15:52 28.04643 -16.57665 209 ft 17 kts 248°
2026-05-07 15:52 28.04598 -16.57783 208 ft 16 kts 246°
2026-05-07 15:53 28.04554 -16.57895 207 ft 15 kts 249°
2026-05-07 15:53 28.04521 -16.58003 212 ft 15 kts 251°
2026-05-07 15:53 28.04481 -16.58126 208 ft 19 kts 249°
2026-05-07 15:53 28.04429 -16.58267 210 ft 19 kts 247°
2026-05-07 15:54 28.04388 -16.58401 205 ft 17 kts 251°
2026-05-07 15:54 28.04345 -16.58523 208 ft 16 kts 247°
2026-05-07 15:54 28.04261 -16.58562 209 ft 14 kts 162°
2026-05-07 15:54 28.04178 -16.58580 206 ft 13 kts 239°
2026-05-07 15:55 28.04142 -16.58676 209 ft 15 kts 249°
2026-05-07 15:55 28.04096 -16.58807 205 ft 20 kts 249°
2026-05-07 15:55 28.04050 -16.58949 199 ft 18 kts 250°
2026-05-07 15:55 28.04002 -16.58996 200 ft 7 kts 180°
2026-05-07 15:56 28.03960 -16.58969 205 ft 6 kts 149°
2026-05-07 15:56 28.03923 -16.58918 207 ft 13 kts 120°
2026-05-07 15:56 28.03910 -16.58789 201 ft 23 kts 73°
2026-05-07 15:56 28.04030 -16.58438 201 ft 80 kts 68°
2026-05-07 15:57 28.04306 -16.57654 211 ft 134 kts 68°
2026-05-07 15:57 28.04688 -16.56546 488 ft 153 kts 71°
2026-05-07 15:57 28.05067 -16.55420 1117 ft 154 kts 68°
2026-05-07 15:57 28.05467 -16.54250 1600 ft 170 kts 68°
2026-05-07 15:58 28.05913 -16.52931 2015 ft 186 kts 68°
2026-05-07 15:58 28.06406 -16.51512 2350 ft 207 kts 67°
2026-05-07 15:58 28.06978 -16.49899 2711 ft 233 kts 67°
2026-05-07 15:58 28.07614 -16.48105 3163 ft 257 kts 67°
2026-05-07 15:59 28.08292 -16.46177 3855 ft 269 kts 66°
2026-05-07 15:59 28.08985 -16.44180 4709 ft 275 kts 67°
2026-05-07 15:59 28.09664 -16.42135 5577 ft 279 kts 67°
2026-05-07 15:59 28.10329 -16.40072 6402 ft 284 kts 68°
2026-05-07 16:00 28.11007 -16.37943 7185 ft 290 kts 68°
2026-05-07 16:00 28.11698 -16.35781 7977 ft 294 kts 68°
2026-05-07 16:00 28.12405 -16.33581 8768 ft 299 kts 69°
2026-05-07 16:00 28.13124 -16.31338 9556 ft 304 kts 69°
2026-05-07 16:01 28.13854 -16.29067 10273 ft 311 kts 69°
2026-05-07 16:01 28.14626 -16.26678 10564 ft 334 kts 69°
2026-05-07 16:01 28.15450 -16.24133 10931 ft 351 kts 69°
2026-05-07 16:01 28.16290 -16.21531 11540 ft 359 kts 69°
2026-05-07 16:02 28.17152 -16.18852 12198 ft 365 kts 70°
2026-05-07 16:02 28.18029 -16.16115 12848 ft 372 kts 70°
2026-05-07 16:02 28.18919 -16.13330 13481 ft 378 kts 70°
2026-05-07 16:02 28.19827 -16.10501 14080 ft 384 kts 69°
2026-05-07 16:03 28.21085 -16.07814 14623 ft 388 kts 52°
2026-05-07 16:03 28.22931 -16.05639 15171 ft 388 kts 34°
2026-05-07 16:03 28.25264 -16.04111 15723 ft 385 kts 17°
2026-05-07 16:03 28.27838 -16.03376 16299 ft 380 kts
2026-05-07 16:04 28.30466 -16.03446 16882 ft 375 kts 346°
2026-05-07 16:04 28.33068 -16.03824 17482 ft 378 kts 346°
2026-05-07 16:04 28.35699 -16.04201 18081 ft 382 kts 346°
2026-05-07 16:04 28.38314 -16.04571 18617 ft 385 kts 346°
2026-05-07 16:05 28.40991 -16.04949 19152 ft 387 kts 346°
2026-05-07 16:05 28.43675 -16.05329 19691 ft 389 kts 346°
2026-05-07 16:05 28.46377 -16.05713 20223 ft 392 kts 346°
2026-05-07 16:05 28.49102 -16.06100 20757 ft 394 kts 346°
2026-05-07 16:06 28.51802 -16.06484 21267 ft 397 kts 346°
2026-05-07 16:06 28.54551 -16.06876 21775 ft 399 kts 346°
2026-05-07 16:06 28.57319 -16.07269 22274 ft 401 kts 346°
2026-05-07 16:06 28.60107 -16.07663 22779 ft 404 kts 346°
2026-05-07 16:07 28.62914 -16.08060 23270 ft 406 kts 346°
2026-05-07 16:07 28.65733 -16.08459 23722 ft 409 kts 346°
2026-05-07 16:07 28.68534 -16.08856 24114 ft 411 kts 346°
2026-05-07 16:07 28.71380 -16.09257 24520 ft 413 kts 346°
2026-05-07 16:08 28.74236 -16.09664 24914 ft 414 kts 345°
2026-05-07 16:08 28.77112 -16.10078 25303 ft 416 kts 345°
2026-05-07 16:08 28.79991 -16.10492 25697 ft 418 kts 345°
2026-05-07 16:08 28.82888 -16.10905 26093 ft 420 kts 346°
2026-05-07 16:09 28.85798 -16.11321 26476 ft 421 kts 345°
2026-05-07 16:09 28.88717 -16.11739 26850 ft 423 kts 345°
2026-05-07 16:09 28.91644 -16.12157 27230 ft 425 kts 346°
2026-05-07 16:09 28.94631 -16.12304 27591 ft 436 kts 356°
2026-05-07 16:10 28.97635 -16.11846 27961 ft 447 kts
2026-05-07 16:10 29.00651 -16.10859 28317 ft 453 kts 10°
2026-05-07 16:10 29.03684 -16.09810 28657 ft 455 kts
2026-05-07 16:10 29.06722 -16.08763 29029 ft 456 kts
2026-05-07 16:11 29.09766 -16.07718 29387 ft 458 kts
2026-05-07 16:11 29.12833 -16.06668 29732 ft 460 kts
2026-05-07 16:11 29.15916 -16.05612 30052 ft 462 kts
2026-05-07 16:11 29.19007 -16.04549 30330 ft 464 kts
2026-05-07 16:12 29.22066 -16.03490 30593 ft 466 kts
2026-05-07 16:12 29.25186 -16.02408 30850 ft 467 kts
2026-05-07 16:12 29.28307 -16.01328 31100 ft 469 kts
2026-05-07 16:12 29.31448 -16.00242 31363 ft 470 kts
2026-05-07 16:13 29.34577 -15.99159 31746 ft 469 kts
2026-05-07 16:13 29.37667 -15.98092 32094 ft 468 kts
2026-05-07 16:13 29.40785 -15.97017 32439 ft 467 kts
2026-05-07 16:13 29.43902 -15.95942 32797 ft 466 kts
2026-05-07 16:14 29.47006 -15.94865 33149 ft 465 kts
2026-05-07 16:14 29.50114 -15.93785 33491 ft 465 kts
2026-05-07 16:14 29.53209 -15.92707 33821 ft 465 kts
2026-05-07 16:14 29.56303 -15.91632 34152 ft 464 kts
2026-05-07 16:15 29.59390 -15.90560 34465 ft 463 kts
2026-05-07 16:15 29.62473 -15.89489 34766 ft 462 kts
2026-05-07 16:15 29.65509 -15.88434 35043 ft 461 kts
2026-05-07 16:15 29.68579 -15.87367 35330 ft 460 kts
2026-05-07 16:16 29.71646 -15.86300 35608 ft 459 kts
2026-05-07 16:16 29.74702 -15.85237 35870 ft 458 kts
2026-05-07 16:16 29.77751 -15.84176 36006 ft 457 kts
2026-05-07 16:17 29.83798 -15.82058 36030 ft 451 kts
2026-05-07 16:17 29.89770 -15.79973 36028 ft 450 kts
2026-05-07 16:18 29.95782 -15.77877 36029 ft 450 kts
2026-05-07 16:18 30.01786 -15.75779 36024 ft 450 kts
2026-05-07 16:19 30.07756 -15.73676 36032 ft 450 kts
2026-05-07 16:19 30.13755 -15.71561 36034 ft 450 kts
2026-05-07 16:20 30.19711 -15.69476 36034 ft 449 kts
2026-05-07 16:20 30.25706 -15.67367 36033 ft 449 kts
2026-05-07 16:21 30.31697 -15.65248 36034 ft 449 kts
2026-05-07 16:21 30.37638 -15.63138 36032 ft 449 kts
2026-05-07 16:22 30.43618 -15.61029 36031 ft 448 kts
2026-05-07 16:22 30.49563 -15.58936 36027 ft 448 kts
2026-05-07 16:23 30.55540 -15.56815 36027 ft 448 kts
2026-05-07 16:23 30.61508 -15.54702 36022 ft 448 kts
2026-05-07 16:24 30.67481 -15.52586 36028 ft 448 kts
2026-05-07 16:24 30.73411 -15.50473 36023 ft 448 kts
2026-05-07 16:25 30.79380 -15.48339 36025 ft 448 kts
2026-05-07 16:25 30.85341 -15.46212 36018 ft 448 kts
2026-05-07 16:26 30.91271 -15.44102 36022 ft 448 kts
2026-05-07 16:26 30.97256 -15.41964 36017 ft 448 kts
2026-05-07 16:27 31.03192 -15.39835 36023 ft 448 kts
2026-05-07 16:27 31.09160 -15.37693 36019 ft 448 kts
2026-05-07 16:28 31.15116 -15.35552 36027 ft 448 kts
2026-05-07 16:28 31.21040 -15.33431 36024 ft 448 kts
2026-05-07 16:29 31.26997 -15.31295 36026 ft 447 kts
2026-05-07 16:29 31.32721 -15.28153 36024 ft 462 kts 27°
2026-05-07 16:30 31.38050 -15.23992 36023 ft 462 kts 27°
2026-05-07 16:30 31.43418 -15.19827 36022 ft 462 kts 27°
2026-05-07 16:31 31.48795 -15.15659 36026 ft 462 kts 27°
2026-05-07 16:31 31.54140 -15.11510 36025 ft 462 kts 27°
2026-05-07 16:32 31.59507 -15.07329 36032 ft 462 kts 27°
2026-05-07 16:32 31.64862 -15.03148 36030 ft 462 kts 27°
2026-05-07 16:33 31.70181 -14.98988 36029 ft 461 kts 27°
2026-05-07 16:33 31.75531 -14.94806 36033 ft 461 kts 27°
2026-05-07 16:34 31.80844 -14.90654 36039 ft 461 kts 27°
2026-05-07 16:34 31.85291 -14.87171 36036 ft 460 kts 28°
2026-05-07 16:35 31.90629 -14.82976 36029 ft 460 kts 28°
2026-05-07 16:35 31.95956 -14.78798 36030 ft 459 kts 28°
2026-05-07 16:36 32.01237 -14.74635 36030 ft 458 kts 28°
2026-05-07 16:36 32.06547 -14.70435 36030 ft 458 kts 28°
2026-05-07 16:37 32.11813 -14.66277 36024 ft 457 kts 28°
2026-05-07 16:37 32.17111 -14.62090 36024 ft 457 kts 28°
2026-05-07 16:38 32.22399 -14.57912 36025 ft 456 kts 28°
2026-05-07 16:38 32.27642 -14.53754 36024 ft 456 kts 28°
2026-05-07 16:39 32.32918 -14.49553 36025 ft 456 kts 28°
2026-05-07 16:39 32.38183 -14.45356 36024 ft 455 kts 28°
2026-05-07 16:40 32.43397 -14.41208 36021 ft 454 kts 28°
2026-05-07 16:40 32.48660 -14.37021 36022 ft 454 kts 28°
2026-05-07 16:41 32.53892 -14.32833 36024 ft 453 kts 29°
2026-05-07 16:41 32.59120 -14.28637 36021 ft 453 kts 29°
2026-05-07 16:42 32.64312 -14.24484 36024 ft 452 kts 28°
2026-05-07 16:42 32.69532 -14.20299 36021 ft 452 kts 29°
2026-05-07 16:43 32.74743 -14.16122 36024 ft 451 kts 29°
2026-05-07 16:43 32.79925 -14.11959 36020 ft 451 kts 29°
2026-05-07 16:44 32.85121 -14.07772 36023 ft 450 kts 29°
2026-05-07 16:44 32.90306 -14.03585 36025 ft 450 kts 29°
2026-05-07 16:45 32.95493 -13.99388 36023 ft 450 kts 29°
2026-05-07 16:45 33.00649 -13.95218 36020 ft 450 kts 29°
2026-05-07 16:46 33.05827 -13.91013 36023 ft 449 kts 29°
2026-05-07 16:46 33.10996 -13.86817 36020 ft 449 kts 29°
2026-05-07 16:47 33.16125 -13.82653 36023 ft 448 kts 29°
2026-05-07 16:47 33.21280 -13.78436 36020 ft 448 kts 29°
2026-05-07 16:48 33.26415 -13.74214 36019 ft 447 kts 30°
2026-05-07 16:48 33.31552 -13.69993 36020 ft 447 kts 30°
2026-05-07 16:49 33.36671 -13.65781 36019 ft 446 kts 30°
2026-05-07 16:49 33.41760 -13.61585 36018 ft 446 kts 30°
2026-05-07 16:50 33.46868 -13.57361 36013 ft 445 kts 30°
2026-05-07 16:50 33.51978 -13.53140 36009 ft 445 kts 30°
2026-05-07 16:51 33.57053 -13.48942 36011 ft 445 kts 30°
2026-05-07 16:51 33.62153 -13.44727 36010 ft 444 kts 30°
2026-05-07 16:52 33.67242 -13.40502 36018 ft 444 kts 30°
2026-05-07 16:52 33.72289 -13.36296 36013 ft 444 kts 30°
2026-05-07 16:53 33.77360 -13.32069 36014 ft 443 kts 30°
2026-05-07 16:53 33.82436 -13.27842 36012 ft 443 kts 30°
2026-05-07 16:54 33.87506 -13.23619 36016 ft 442 kts 30°
2026-05-07 16:54 33.92542 -13.19411 36013 ft 442 kts 30°
2026-05-07 16:55 33.97589 -13.15178 36013 ft 442 kts 30°
2026-05-07 16:55 34.02634 -13.10941 36013 ft 442 kts 30°
2026-05-07 16:56 34.07682 -13.06697 36012 ft 441 kts 30°
2026-05-07 16:56 34.15246 -13.00343 36010 ft 441 kts 30°
2026-05-07 16:57 34.20261 -12.96117 36008 ft 441 kts 30°
2026-05-07 16:57 34.25290 -12.91871 36005 ft 441 kts 30°
2026-05-07 16:58 34.30301 -12.87648 36005 ft 440 kts 30°
2026-05-07 16:58 34.35345 -12.83420 35997 ft 440 kts 30°
2026-05-07 16:59 34.40387 -12.79196 36001 ft 440 kts 30°
2026-05-07 16:59 34.45396 -12.75008 36001 ft 439 kts 30°
2026-05-07 17:00 34.50425 -12.70790 35998 ft 439 kts 30°
2026-05-07 17:00 34.55458 -12.66537 35988 ft 440 kts 30°
2026-05-07 17:01 34.60444 -12.62321 35982 ft 438 kts 30°
2026-05-07 17:01 34.65457 -12.58089 35973 ft 439 kts 30°
2026-05-07 17:02 34.70479 -12.53848 35978 ft 439 kts 30°
2026-05-07 17:02 34.75471 -12.49608 35976 ft 440 kts 30°
2026-05-07 17:03 34.80499 -12.45324 35978 ft 441 kts 30°
2026-05-07 17:03 34.85536 -12.41034 35976 ft 441 kts 30°
2026-05-07 17:04 34.90543 -12.36786 35975 ft 442 kts 30°
2026-05-07 17:04 34.95588 -12.32491 35971 ft 442 kts 30°
2026-05-07 17:05 35.00645 -12.28165 35970 ft 443 kts 30°
2026-05-07 17:05 35.05698 -12.23839 35967 ft 444 kts 30°
2026-05-07 17:06 35.10739 -12.19523 35966 ft 444 kts 31°
2026-05-07 17:06 35.15814 -12.15159 35964 ft 445 kts 31°
2026-05-07 17:07 35.20856 -12.10819 35965 ft 446 kts 31°
2026-05-07 17:07 35.25956 -12.06433 35966 ft 447 kts 31°
2026-05-07 17:08 35.31017 -12.02076 35970 ft 448 kts 31°
2026-05-07 17:08 35.36126 -11.97656 35970 ft 448 kts 31°
2026-05-07 17:09 35.41203 -11.93262 35963 ft 449 kts 31°
2026-05-07 17:09 35.46323 -11.88834 35972 ft 450 kts 31°
2026-05-07 17:10 35.51445 -11.84386 35971 ft 451 kts 31°
2026-05-07 17:10 35.56571 -11.79927 35965 ft 451 kts 31°
2026-05-07 17:11 35.61701 -11.75463 35962 ft 452 kts 31°
2026-05-07 17:11 35.66814 -11.71017 35959 ft 453 kts 31°
2026-05-07 17:12 35.71962 -11.66517 35957 ft 454 kts 32°
2026-05-07 17:12 35.77094 -11.61955 35956 ft 455 kts 33°
2026-05-07 17:13 35.82121 -11.57262 35961 ft 456 kts 34°
2026-05-07 17:13 35.87161 -11.52492 35958 ft 457 kts 34°
2026-05-07 17:14 35.92223 -11.47734 35962 ft 457 kts 34°
2026-05-07 17:14 35.97314 -11.42980 35958 ft 458 kts 34°
2026-05-07 17:15 36.02381 -11.38251 35960 ft 459 kts 34°
2026-05-07 17:15 36.07476 -11.33473 35958 ft 459 kts 34°
2026-05-07 17:16 36.11710 -11.29489 35960 ft 460 kts 34°
2026-05-07 17:16 36.17648 -11.23903 35958 ft 461 kts 34°
2026-05-07 17:17 36.22756 -11.19075 35960 ft 461 kts 34°
2026-05-07 17:17 36.27846 -11.14259 35955 ft 462 kts 34°
2026-05-07 17:18 36.32978 -11.09404 35955 ft 463 kts 34°
2026-05-07 17:18 36.38076 -11.04570 35953 ft 464 kts 34°
2026-05-07 17:19 36.43218 -10.99689 35955 ft 465 kts 34°
2026-05-07 17:19 36.47487 -10.95622 35955 ft 465 kts 34°
2026-05-07 17:20 36.52645 -10.90717 35956 ft 466 kts 34°
2026-05-07 17:20 36.57799 -10.85803 35954 ft 467 kts 34°
2026-05-07 17:21 36.62917 -10.80903 35960 ft 468 kts 35°
2026-05-07 17:21 36.68092 -10.75941 35954 ft 469 kts 35°
2026-05-07 17:22 36.73267 -10.70961 35956 ft 470 kts 35°
2026-05-07 17:22 36.78456 -10.65975 35959 ft 470 kts 35°
2026-05-07 17:23 36.83613 -10.61016 35959 ft 471 kts 35°
2026-05-07 17:23 36.88812 -10.56000 35958 ft 471 kts 35°
2026-05-07 17:24 36.94020 -10.50969 35958 ft 472 kts 35°
2026-05-07 17:24 36.99211 -10.45945 35957 ft 472 kts 35°
2026-05-07 17:25 37.04385 -10.40933 35955 ft 473 kts 35°
2026-05-07 17:25 37.09600 -10.35866 35953 ft 473 kts 35°
2026-05-07 17:26 37.14809 -10.30788 35949 ft 474 kts 35°
2026-05-07 17:26 37.19986 -10.25738 35946 ft 474 kts 35°
2026-05-07 17:27 37.25211 -10.20650 35948 ft 475 kts 35°
2026-05-07 17:27 37.30432 -10.15546 35947 ft 475 kts 35°
2026-05-07 17:28 37.35620 -10.10448 35946 ft 476 kts 35°
2026-05-07 17:28 37.40849 -10.05313 35947 ft 476 kts 36°
2026-05-07 17:29 37.46079 -10.00172 35947 ft 477 kts 35°
2026-05-07 17:29 37.51318 -9.95017 35944 ft 477 kts 36°
2026-05-07 17:30 37.56512 -9.89885 35948 ft 477 kts 36°
2026-05-07 17:30 37.61758 -9.84688 35943 ft 478 kts 36°
2026-05-07 17:31 37.66986 -9.79507 35945 ft 478 kts 36°
2026-05-07 17:31 37.72208 -9.74328 36118 ft 483 kts 36°
2026-05-07 17:32 37.74848 -9.71703 36323 ft 484 kts 36°
2026-05-07 17:32 37.77491 -9.69073 36564 ft 483 kts 36°
2026-05-07 17:32 37.80144 -9.66431 36816 ft 483 kts 36°
2026-05-07 17:32 37.82789 -9.63792 37047 ft 483 kts 36°
2026-05-07 17:33 37.85431 -9.61153 37281 ft 483 kts 36°
2026-05-07 17:33 37.88042 -9.58541 37513 ft 483 kts 36°
2026-05-07 17:33 37.90675 -9.55905 37741 ft 482 kts 36°
2026-05-07 17:33 37.93322 -9.53257 37913 ft 483 kts 35°
2026-05-07 17:34 37.98579 -9.47997 37947 ft 483 kts 35°
2026-05-07 17:34 38.03846 -9.42705 37943 ft 483 kts 36°
2026-05-07 17:35 38.09101 -9.37411 37946 ft 483 kts 35°
2026-05-07 17:35 38.14380 -9.32087 37941 ft 484 kts 35°
2026-05-07 17:36 38.19627 -9.26791 37944 ft 484 kts 35°
2026-05-07 17:36 38.24903 -9.21460 37945 ft 484 kts 35°
2026-05-07 17:37 38.30191 -9.16104 37831 ft 484 kts 35°
2026-05-07 17:37 38.32808 -9.13449 37951 ft 486 kts 34°
2026-05-07 17:37 38.35475 -9.10740 37936 ft 492 kts 34°
2026-05-07 17:38 38.40874 -9.05245 37927 ft 497 kts 34°
2026-05-07 17:38 38.46254 -8.99764 37927 ft 497 kts 34°
2026-05-07 17:39 38.51671 -8.94231 37923 ft 497 kts 34°
2026-05-07 17:39 38.57038 -8.88736 37925 ft 497 kts 34°
2026-05-07 17:40 38.62452 -8.83185 37926 ft 497 kts 34°
2026-05-07 17:40 38.67853 -8.77630 37938 ft 497 kts 34°
2026-05-07 17:41 38.73210 -8.72110 37935 ft 497 kts 34°
2026-05-07 17:41 38.78592 -8.66554 37935 ft 496 kts 34°
2026-05-07 17:42 38.83971 -8.60992 37933 ft 496 kts 34°
2026-05-07 17:42 38.89309 -8.55463 37934 ft 495 kts 34°
2026-05-07 17:43 38.94669 -8.49897 37934 ft 494 kts 34°
2026-05-07 17:43 39.00024 -8.44327 37927 ft 493 kts 34°
2026-05-07 17:44 39.05331 -8.38803 37927 ft 492 kts 34°
2026-05-07 17:44 39.10654 -8.33254 37923 ft 491 kts 34°
2026-05-07 17:45 39.15965 -8.27697 37922 ft 491 kts 34°
2026-05-07 17:45 39.21230 -8.22171 37917 ft 490 kts 34°
2026-05-07 17:46 39.26520 -8.16602 37915 ft 490 kts 34°
2026-05-07 17:46 39.31787 -8.11058 37914 ft 489 kts 34°
2026-05-07 17:47 39.37063 -8.05490 37911 ft 489 kts 34°
2026-05-07 17:47 39.42343 -7.99918 37915 ft 488 kts 34°
2026-05-07 17:48 39.47579 -7.94379 37911 ft 488 kts 34°
2026-05-07 17:48 39.52831 -7.88808 37908 ft 487 kts 34°
2026-05-07 17:49 39.58084 -7.83223 37907 ft 486 kts 34°
2026-05-07 17:49 39.63278 -7.77687 37903 ft 486 kts 34°
2026-05-07 17:50 39.68498 -7.72106 37896 ft 485 kts 34°
2026-05-07 17:50 39.73700 -7.66527 37900 ft 484 kts 34°
2026-05-07 17:51 39.78907 -7.60950 37896 ft 483 kts 34°
2026-05-07 17:51 39.84056 -7.55423 37893 ft 483 kts 34°
2026-05-07 17:52 39.89227 -7.49856 37887 ft 482 kts 34°
2026-05-07 17:52 39.94388 -7.44297 37888 ft 480 kts 34°
2026-05-07 17:53 39.99540 -7.38729 37881 ft 479 kts 34°
2026-05-07 17:53 40.04643 -7.33205 37874 ft 478 kts 34°
2026-05-07 17:54 40.09762 -7.27642 37874 ft 478 kts 34°
2026-05-07 17:54 40.14885 -7.22073 37875 ft 477 kts 34°
2026-05-07 17:55 40.19955 -7.16557 37876 ft 476 kts 34°
2026-05-07 17:55 40.25056 -7.10994 37888 ft 476 kts 34°
2026-05-07 17:56 40.30131 -7.05437 37889 ft 475 kts 34°
2026-05-07 17:56 40.35186 -6.99897 37887 ft 474 kts 34°
2026-05-07 17:57 40.39385 -6.95285 37889 ft 473 kts 34°
2026-05-07 17:57 40.45249 -6.88826 37896 ft 472 kts 34°
2026-05-07 17:58 40.50285 -6.83271 37891 ft 471 kts 34°
2026-05-07 17:58 40.55305 -6.77726 37891 ft 470 kts 34°
2026-05-07 17:59 40.60297 -6.72206 37895 ft 469 kts 34°
2026-05-07 17:59 40.65296 -6.66662 37894 ft 469 kts 34°
2026-05-07 18:00 40.70284 -6.61116 37897 ft 468 kts 34°
2026-05-07 18:00 40.75217 -6.55618 37897 ft 467 kts 34°
2026-05-07 18:01 40.80174 -6.50085 37898 ft 466 kts 34°
2026-05-07 18:01 40.85116 -6.44553 37906 ft 465 kts 34°
2026-05-07 18:02 40.92482 -6.36293 37897 ft 464 kts 35°
2026-05-07 18:03 40.97403 -6.30755 37899 ft 463 kts 35°
2026-05-07 18:03 41.02260 -6.25208 37898 ft 464 kts 36°
2026-05-07 18:04 41.07063 -6.19457 37905 ft 464 kts 37°
2026-05-07 18:04 41.11847 -6.13665 37899 ft 465 kts 37°
2026-05-07 18:05 41.16616 -6.07926 37902 ft 465 kts 37°
2026-05-07 18:05 41.21430 -6.02165 37901 ft 465 kts 37°
2026-05-07 18:06 41.26241 -5.96398 37896 ft 465 kts 37°
2026-05-07 18:06 41.31015 -5.90646 37887 ft 465 kts 37°
2026-05-07 18:07 41.35010 -5.85827 37881 ft 465 kts 37°
2026-05-07 18:07 41.40594 -5.79070 37882 ft 466 kts 37°
2026-05-07 18:08 41.44588 -5.74223 37887 ft 466 kts 37°
2026-05-07 18:08 41.49399 -5.68382 37898 ft 467 kts 37°
2026-05-07 18:09 41.54544 -5.63263 37903 ft 455 kts 21°
2026-05-07 18:09 41.60253 -5.59915 37908 ft 449 kts 16°
2026-05-07 18:10 41.66030 -5.56668 37916 ft 449 kts 16°
2026-05-07 18:10 41.71750 -5.53432 37918 ft 448 kts 17°
2026-05-07 18:11 41.77496 -5.50178 37921 ft 447 kts 17°
2026-05-07 18:11 41.83221 -5.46936 37918 ft 446 kts 17°
2026-05-07 18:12 41.88933 -5.43683 37919 ft 445 kts 17°
2026-05-07 18:12 41.94607 -5.40441 37918 ft 445 kts 17°
2026-05-07 18:13 42.00318 -5.37187 37919 ft 444 kts 17°
2026-05-07 18:13 42.05980 -5.33961 37919 ft 444 kts 17°
2026-05-07 18:14 42.11680 -5.30701 37920 ft 444 kts 17°
2026-05-07 18:14 42.17339 -5.27449 37919 ft 444 kts 17°
2026-05-07 18:15 42.23038 -5.24172 37917 ft 443 kts 18°
2026-05-07 18:15 42.28712 -5.20905 37913 ft 443 kts 18°
2026-05-07 18:16 42.34365 -5.17643 37914 ft 443 kts 18°
2026-05-07 18:16 42.40030 -5.14368 37912 ft 443 kts 18°
2026-05-07 18:17 42.45669 -5.11096 37905 ft 442 kts 18°
2026-05-07 18:17 42.51347 -5.07801 37905 ft 442 kts 18°
2026-05-07 18:18 42.56971 -5.04526 37903 ft 442 kts 18°
2026-05-07 18:18 42.62632 -5.01222 37912 ft 442 kts 19°
2026-05-07 18:19 42.68294 -4.97907 37910 ft 442 kts 19°
2026-05-07 18:19 42.73921 -4.94612 37915 ft 443 kts 19°
2026-05-07 18:20 42.79601 -4.91289 37920 ft 443 kts 19°
2026-05-07 18:20 42.85250 -4.87978 37923 ft 444 kts 19°
2026-05-07 18:21 42.90929 -4.84633 37926 ft 444 kts 19°
2026-05-07 18:21 42.96601 -4.81283 37925 ft 444 kts 19°
2026-05-07 18:22 43.02248 -4.77941 37924 ft 444 kts 19°
2026-05-07 18:22 43.07940 -4.74564 37924 ft 444 kts 19°
2026-05-07 18:23 43.13598 -4.71214 37923 ft 445 kts 19°
2026-05-07 18:23 43.19288 -4.67839 37920 ft 445 kts 20°
2026-05-07 18:24 43.24975 -4.64448 37904 ft 445 kts 20°
2026-05-07 18:24 43.30670 -4.61041 37901 ft 446 kts 20°
2026-05-07 18:25 43.36330 -4.57651 37902 ft 446 kts 20°
2026-05-07 18:25 43.42041 -4.54240 37902 ft 447 kts 20°
2026-05-07 18:26 43.47737 -4.50811 37898 ft 447 kts 20°
2026-05-07 18:26 43.53396 -4.47392 37899 ft 447 kts 20°
2026-05-07 18:27 43.59119 -4.43939 37900 ft 447 kts 20°
2026-05-07 18:27 43.64800 -4.40503 37898 ft 448 kts 21°
2026-05-07 18:28 43.70509 -4.37041 37898 ft 448 kts 20°
2026-05-07 18:28 43.76234 -4.33569 37901 ft 448 kts 21°
2026-05-07 18:29 43.81948 -4.30090 37904 ft 448 kts 21°
2026-05-07 18:29 43.87624 -4.26622 37903 ft 448 kts 21°
2026-05-07 18:30 43.93337 -4.23136 37905 ft 448 kts 21°
2026-05-07 18:30 43.99058 -4.19638 37902 ft 449 kts 21°
2026-05-07 18:31 44.04745 -4.16155 37909 ft 449 kts 21°
2026-05-07 18:31 44.10462 -4.12634 37909 ft 449 kts 21°
2026-05-07 18:32 44.16177 -4.09099 37915 ft 449 kts 21°
2026-05-07 18:32 44.21917 -4.05556 37919 ft 449 kts 21°
2026-05-07 18:33 44.27606 -4.02043 37924 ft 449 kts 21°
2026-05-07 18:33 44.33281 -3.98325 37916 ft 451 kts 29°
2026-05-07 18:34 44.38451 -3.93402 37917 ft 452 kts 33°
2026-05-07 18:34 44.43636 -3.88396 37918 ft 453 kts 32°
2026-05-07 18:35 44.48837 -3.83388 37918 ft 453 kts 32°
2026-05-07 18:35 44.53998 -3.78401 37922 ft 453 kts 33°
2026-05-07 18:36 44.59198 -3.73352 37925 ft 453 kts 33°
2026-05-07 18:36 44.64387 -3.68301 37934 ft 454 kts 33°
2026-05-07 18:37 44.69558 -3.63266 37935 ft 454 kts 33°
2026-05-07 18:37 44.74752 -3.58191 37936 ft 454 kts 33°
2026-05-07 18:38 44.79925 -3.53127 37946 ft 455 kts 33°
2026-05-07 18:38 44.85115 -3.48028 37941 ft 455 kts 33°
2026-05-07 18:39 44.90314 -3.42916 37948 ft 455 kts 33°
2026-05-07 18:39 44.95480 -3.37812 37951 ft 455 kts 33°
2026-05-07 18:40 45.00676 -3.32683 37951 ft 455 kts 33°
2026-05-07 18:40 45.05876 -3.27553 37956 ft 455 kts 33°
2026-05-07 18:41 45.11031 -3.22436 37955 ft 455 kts 33°
2026-05-07 18:41 45.16214 -3.17265 37952 ft 454 kts 33°
2026-05-07 18:42 45.21400 -3.12093 37939 ft 455 kts 33°
2026-05-07 18:42 45.26543 -3.06972 37945 ft 455 kts 33°
2026-05-07 18:43 45.31724 -3.01803 37949 ft 455 kts 33°
2026-05-07 18:43 45.36883 -2.96543 37952 ft 456 kts 34°
2026-05-07 18:44 45.42008 -2.91211 37955 ft 456 kts 34°
2026-05-07 18:44 45.47115 -2.85906 37957 ft 456 kts 34°
2026-05-07 18:45 45.52266 -2.80567 37960 ft 456 kts 34°
2026-05-07 18:45 45.57399 -2.75239 37962 ft 456 kts 34°
2026-05-07 18:46 45.62513 -2.69920 37965 ft 456 kts 34°
2026-05-07 18:46 45.67641 -2.64569 37959 ft 456 kts 34°
2026-05-07 18:47 45.72747 -2.59228 37961 ft 456 kts 35°
2026-05-07 18:47 45.77874 -2.53857 37965 ft 457 kts 34°
2026-05-07 18:48 45.82982 -2.48487 37966 ft 457 kts 35°
2026-05-07 18:48 45.88112 -2.43078 37968 ft 457 kts 35°
2026-05-07 18:49 45.93258 -2.37658 37973 ft 457 kts 35°
2026-05-07 18:49 45.98389 -2.32240 37973 ft 458 kts 35°
2026-05-07 18:50 46.03490 -2.26825 37974 ft 458 kts 35°
2026-05-07 18:50 46.08948 -2.22106 37974 ft 457 kts 26°
2026-05-07 18:51 46.14532 -2.17801 37979 ft 457 kts 26°
2026-05-07 18:51 46.20156 -2.13441 37982 ft 458 kts 26°
2026-05-07 18:52 46.25765 -2.09062 37985 ft 458 kts 27°
2026-05-07 18:52 46.31332 -2.04709 37986 ft 458 kts 26°
2026-05-07 18:53 46.36959 -2.00325 37984 ft 458 kts 26°
2026-05-07 18:53 46.42538 -1.95962 37984 ft 458 kts 27°
2026-05-07 18:54 46.48146 -1.91548 37985 ft 458 kts 27°
2026-05-07 18:54 46.53750 -1.87136 37981 ft 458 kts 27°
2026-05-07 18:55 46.59361 -1.82721 37983 ft 458 kts 27°
2026-05-07 18:55 46.64935 -1.78307 37987 ft 458 kts 27°
2026-05-07 18:56 46.70544 -1.73852 37978 ft 458 kts 27°
2026-05-07 18:56 46.76117 -1.69422 37982 ft 458 kts 27°
2026-05-07 18:57 46.81726 -1.64955 37988 ft 458 kts 27°
2026-05-07 18:57 46.86391 -1.61230 37985 ft 458 kts 27°
2026-05-07 18:58 46.91967 -1.56771 37984 ft 458 kts 27°
2026-05-07 18:58 46.97567 -1.52283 37980 ft 458 kts 27°
2026-05-07 18:59 47.03150 -1.47794 37984 ft 458 kts 27°
2026-05-07 18:59 47.08726 -1.43303 37986 ft 458 kts 27°
2026-05-07 19:00 47.14319 -1.38788 37983 ft 458 kts 27°
2026-05-07 19:00 47.19909 -1.34263 37987 ft 459 kts 27°
2026-05-07 19:01 47.25475 -1.29747 37984 ft 458 kts 27°
2026-05-07 19:01 47.31067 -1.25203 37987 ft 458 kts 27°
2026-05-07 19:02 47.36642 -1.20648 37991 ft 458 kts 27°
2026-05-07 19:02 47.42235 -1.16066 37992 ft 458 kts 27°
2026-05-07 19:03 47.47778 -1.11528 37996 ft 458 kts 27°
2026-05-07 19:03 47.53358 -1.06940 37997 ft 458 kts 27°
2026-05-07 19:04 47.58897 -1.02363 37996 ft 458 kts 27°
2026-05-07 19:04 47.64468 -0.97754 37997 ft 458 kts 27°
2026-05-07 19:05 47.70031 -0.93128 37994 ft 458 kts 30°
2026-05-07 19:05 47.74898 -0.87095 38006 ft 460 kts 49°
2026-05-07 19:06 47.78827 -0.79572 38002 ft 460 kts 52°
2026-05-07 19:06 47.84655 -0.68268 38007 ft 460 kts 52°
2026-05-07 19:07 47.88549 -0.60694 38008 ft 460 kts 52°
2026-05-07 19:07 47.92419 -0.53116 38006 ft 460 kts 52°
2026-05-07 19:08 47.96298 -0.45501 38004 ft 460 kts 52°
2026-05-07 19:08 48.00097 -0.37897 38002 ft 460 kts 59°
2026-05-07 19:09 48.02656 -0.29149 38002 ft 459 kts 69°
2026-05-07 19:09 48.05000 -0.20255 38004 ft 460 kts 69°
2026-05-07 19:10 48.07341 -0.11329 38006 ft 460 kts 69°
2026-05-07 19:10 48.09663 -0.02452 38010 ft 461 kts 69°
2026-05-07 19:11 48.11998 0.06484 38008 ft 461 kts 69°
2026-05-07 19:11 48.14337 0.15452 38004 ft 461 kts 69°
2026-05-07 19:12 48.16654 0.24368 38013 ft 462 kts 69°
2026-05-07 19:12 48.18971 0.33339 38011 ft 462 kts 69°
2026-05-07 19:13 48.21267 0.42283 38016 ft 462 kts 69°
2026-05-07 19:13 48.23577 0.51288 38017 ft 462 kts 69°
2026-05-07 19:14 48.25884 0.60315 38025 ft 462 kts 70°
2026-05-07 19:14 48.28162 0.69280 38030 ft 462 kts 70°
2026-05-07 19:15 48.30457 0.78348 38033 ft 462 kts 70°
2026-05-07 19:15 48.32726 0.87339 38032 ft 462 kts 70°
2026-05-07 19:16 48.35004 0.96382 38032 ft 462 kts 70°
2026-05-07 19:16 48.37253 1.05401 38031 ft 462 kts 70°
2026-05-07 19:17 48.39510 1.14470 38029 ft 462 kts 70°
2026-05-07 19:17 48.41751 1.23482 38032 ft 461 kts 70°
2026-05-07 19:18 48.43993 1.32550 38030 ft 461 kts 70°
2026-05-07 19:18 48.46223 1.41618 38028 ft 461 kts 70°
2026-05-07 19:19 48.48434 1.50625 38032 ft 461 kts 70°
2026-05-07 19:19 48.50650 1.59723 38031 ft 461 kts 70°
2026-05-07 19:20 48.52862 1.68827 38032 ft 462 kts 70°
2026-05-07 19:20 48.55056 1.77869 38043 ft 461 kts 70°
2026-05-07 19:21 48.57257 1.86978 38050 ft 461 kts 70°
2026-05-07 19:21 48.59452 1.96118 38053 ft 462 kts 70°
2026-05-07 19:22 48.61628 2.05219 38060 ft 462 kts 70°
2026-05-07 19:22 48.63634 2.13630 38064 ft 462 kts 70°
2026-05-07 19:23 48.65789 2.22735 38065 ft 461 kts 70°
2026-05-07 19:23 48.67953 2.31891 38063 ft 461 kts 71°
2026-05-07 19:24 48.70094 2.40998 38063 ft 461 kts 71°
2026-05-07 19:24 48.72243 2.50150 38059 ft 461 kts 71°
2026-05-07 19:25 48.74380 2.59318 38056 ft 460 kts 71°
2026-05-07 19:25 48.76492 2.68428 38054 ft 460 kts 71°
2026-05-07 19:26 48.78620 2.77621 38049 ft 460 kts 71°
2026-05-07 19:26 48.80723 2.86738 38051 ft 460 kts 71°
2026-05-07 19:27 48.82832 2.95928 38057 ft 461 kts 71°
2026-05-07 19:27 48.84921 3.05089 38058 ft 461 kts 71°
2026-05-07 19:28 48.87013 3.14304 38062 ft 461 kts 71°
2026-05-07 19:28 48.89105 3.23539 38071 ft 461 kts 71°
2026-05-07 19:29 48.91189 3.32768 38074 ft 461 kts 71°
2026-05-07 19:29 48.93254 3.41975 38072 ft 461 kts 71°
2026-05-07 19:30 48.95319 3.51230 38073 ft 461 kts 71°
2026-05-07 19:30 48.97366 3.60421 38072 ft 461 kts 71°
2026-05-07 19:31 48.99431 3.69698 38072 ft 461 kts 71°
2026-05-07 19:31 49.01467 3.78915 38107 ft 462 kts 71°
2026-05-07 19:32 49.02487 3.83568 38321 ft 463 kts 72°
2026-05-07 19:32 49.03506 3.88239 38558 ft 463 kts 72°
2026-05-07 19:32 49.04522 3.92902 38776 ft 463 kts 72°
2026-05-07 19:32 49.05527 3.97510 38958 ft 463 kts 72°
2026-05-07 19:33 49.07564 4.06857 39058 ft 464 kts 72°
2026-05-07 19:33 49.09591 4.16199 39057 ft 463 kts 72°
2026-05-07 19:34 49.11602 4.25521 39057 ft 463 kts 72°
2026-05-07 19:34 49.13604 4.34882 39060 ft 463 kts 72°
2026-05-07 19:35 49.15843 4.44136 39059 ft 463 kts 68°
2026-05-07 19:35 49.18386 4.53131 39064 ft 463 kts 66°
2026-05-07 19:36 49.20959 4.62171 39066 ft 463 kts 67°
2026-05-07 19:36 49.23441 4.71308 39066 ft 464 kts 68°
2026-05-07 19:37 49.25868 4.80471 39067 ft 464 kts 68°
2026-05-07 19:37 49.28278 4.89578 39065 ft 464 kts 68°
2026-05-07 19:38 49.30707 4.98727 39062 ft 460 kts 68°
2026-05-07 19:38 49.31901 5.03215 39031 ft 447 kts 68°
2026-05-07 19:38 49.33063 5.07584 38833 ft 438 kts 68°
2026-05-07 19:39 49.34203 5.11881 38580 ft 431 kts 68°
2026-05-07 19:39 49.35312 5.16071 38300 ft 427 kts 68°
2026-05-07 19:39 49.36424 5.20283 38026 ft 425 kts 68°
2026-05-07 19:39 49.37170 5.23115 37840 ft 424 kts 68°
2026-05-07 19:40 49.38629 5.28684 37478 ft 423 kts 68°
2026-05-07 19:40 49.39855 5.32773 37206 ft 421 kts 57°
2026-05-07 19:40 49.41658 5.36310 36810 ft 419 kts 46°
2026-05-07 19:40 49.43584 5.39590 36431 ft 419 kts 46°
2026-05-07 19:41 49.45536 5.42905 36051 ft 418 kts 46°
2026-05-07 19:41 49.47496 5.46232 35675 ft 418 kts 46°
2026-05-07 19:41 49.49446 5.49548 35308 ft 417 kts 46°
2026-05-07 19:41 49.51388 5.52866 34936 ft 416 kts 46°
2026-05-07 19:42 49.53326 5.56180 34582 ft 416 kts 46°
2026-05-07 19:42 49.55258 5.59487 34224 ft 415 kts 46°
2026-05-07 19:42 49.57166 5.62760 33846 ft 414 kts 46°
2026-05-07 19:42 49.59096 5.66073 33425 ft 414 kts 46°
2026-05-07 19:43 49.61015 5.69370 33012 ft 414 kts 46°
2026-05-07 19:43 49.62945 5.72688 32607 ft 414 kts 46°
2026-05-07 19:43 49.64910 5.75944 32210 ft 413 kts 39°
2026-05-07 19:43 49.67229 5.78566 31814 ft 411 kts 31°
2026-05-07 19:44 49.69589 5.80966 31434 ft 412 kts 31°
2026-05-07 19:44 49.71837 5.83661 31046 ft 410 kts 44°
2026-05-07 19:44 49.73531 5.87205 30662 ft 409 kts 61°
2026-05-07 19:44 49.74828 5.91115 30300 ft 407 kts 62°
2026-05-07 19:45 49.76097 5.95016 30043 ft 405 kts 62°
2026-05-07 19:45 49.77051 5.97489 30043 ft 402 kts 52°
2026-05-07 19:45 49.78994 6.00591 30066 ft 399 kts 34°
2026-05-07 19:45 49.81356 6.02807 30063 ft 398 kts 26°
2026-05-07 19:46 49.86227 6.06907 30068 ft 398 kts 26°
2026-05-07 19:46 49.91118 6.11006 30067 ft 398 kts 26°
2026-05-07 19:47 49.95960 6.15083 30006 ft 399 kts 26°
2026-05-07 19:47 49.98392 6.17142 29726 ft 397 kts 26°
2026-05-07 19:47 50.00805 6.19192 29350 ft 395 kts 26°
2026-05-07 19:48 50.03217 6.21246 28929 ft 392 kts 26°
2026-05-07 19:48 50.05601 6.23279 28506 ft 389 kts 27°
2026-05-07 19:48 50.07964 6.25297 28097 ft 387 kts 27°
2026-05-07 19:48 50.10319 6.27307 27689 ft 384 kts 27°
2026-05-07 19:49 50.12656 6.29301 27290 ft 382 kts 27°
2026-05-07 19:49 50.14992 6.31291 26891 ft 380 kts 27°
2026-05-07 19:49 50.17301 6.33262 26505 ft 377 kts 27°
2026-05-07 19:49 50.19573 6.35208 26132 ft 375 kts 27°
2026-05-07 19:50 50.21863 6.37170 25748 ft 373 kts 27°
2026-05-07 19:50 50.24135 6.39121 25382 ft 371 kts 27°
2026-05-07 19:50 50.26386 6.41061 25102 ft 368 kts 27°
2026-05-07 19:50 50.28630 6.42992 25066 ft 368 kts 27°
2026-05-07 19:51 50.30830 6.45054 25077 ft 370 kts 36°
2026-05-07 19:51 50.32705 6.47811 25080 ft 372 kts 50°
2026-05-07 19:51 50.34108 6.51144 25077 ft 373 kts 63°
2026-05-07 19:51 50.34992 6.54973 25083 ft 374 kts 77°
2026-05-07 19:52 50.35282 6.59006 25070 ft 374 kts 91°
2026-05-07 19:52 50.35077 6.63048 25074 ft 374 kts 96°
2026-05-07 19:52 50.34813 6.67109 25079 ft 374 kts 96°
2026-05-07 19:52 50.34548 6.71161 25080 ft 374 kts 96°
2026-05-07 19:53 50.34283 6.75206 25081 ft 374 kts 96°
2026-05-07 19:53 50.34023 6.79263 25082 ft 374 kts 96°
2026-05-07 19:53 50.33764 6.83308 25046 ft 373 kts 98°
2026-05-07 19:53 50.33221 6.87294 24250 ft 381 kts 110°
2026-05-07 19:54 50.32178 6.91084 23528 ft 385 kts 117°
2026-05-07 19:54 50.31025 6.94867 22907 ft 384 kts 116°
2026-05-07 19:54 50.29890 6.98631 22341 ft 382 kts 116°
2026-05-07 19:54 50.28764 7.02394 21871 ft 378 kts 116°
2026-05-07 19:55 50.27655 7.06114 21323 ft 377 kts 116°
2026-05-07 19:55 50.26557 7.09806 20900 ft 372 kts 116°
2026-05-07 19:55 50.25462 7.13486 20423 ft 370 kts 116°
2026-05-07 19:55 50.24382 7.17108 20002 ft 366 kts 116°
2026-05-07 19:56 50.23301 7.20718 19524 ft 365 kts 116°
2026-05-07 19:56 50.22243 7.24245 19088 ft 362 kts 116°
2026-05-07 19:56 50.21174 7.27794 18658 ft 360 kts 116°
2026-05-07 19:56 50.20109 7.31322 18216 ft 358 kts 116°
2026-05-07 19:57 50.19085 7.34859 17737 ft 355 kts 113°
2026-05-07 19:57 50.18176 7.38438 17270 ft 353 kts 111°
2026-05-07 19:57 50.17337 7.42025 16816 ft 351 kts 110°
2026-05-07 19:57 50.16525 7.45605 16378 ft 348 kts 110°
2026-05-07 19:58 50.15725 7.49121 15966 ft 346 kts 110°
2026-05-07 19:58 50.14911 7.52641 15546 ft 344 kts 111°
2026-05-07 19:58 50.14088 7.56140 15129 ft 342 kts 111°
2026-05-07 19:58 50.13262 7.59600 14741 ft 340 kts 111°
2026-05-07 19:59 50.12436 7.63034 14245 ft 335 kts 111°
2026-05-07 19:59 50.11617 7.66426 13459 ft 332 kts 111°
2026-05-07 19:59 50.10826 7.69773 12882 ft 326 kts 110°
2026-05-07 19:59 50.10124 7.73122 12499 ft 323 kts 108°
2026-05-07 20:00 50.09476 7.76469 12110 ft 321 kts 107°
2026-05-07 20:00 50.08853 7.79798 11730 ft 319 kts 107°
2026-05-07 20:00 50.08312 7.83129 11351 ft 317 kts 98°
2026-05-07 20:00 50.08276 7.86507 11062 ft 311 kts 83°
2026-05-07 20:01 50.08763 7.89722 10937 ft 302 kts 69°
2026-05-07 20:01 50.09506 7.92760 10806 ft 300 kts 69°
2026-05-07 20:01 50.10247 7.95803 10467 ft 298 kts 69°
2026-05-07 20:01 50.10980 7.98817 10153 ft 296 kts 69°
2026-05-07 20:02 50.11699 8.01766 9832 ft 294 kts 69°
2026-05-07 20:02 50.12420 8.04729 9470 ft 292 kts 69°
2026-05-07 20:02 50.13134 8.07667 9184 ft 290 kts 69°
2026-05-07 20:02 50.13848 8.10601 8916 ft 288 kts 69°
2026-05-07 20:03 50.14559 8.13518 8646 ft 287 kts 69°
2026-05-07 20:03 50.15111 8.16495 8389 ft 286 kts 84°
2026-05-07 20:03 50.14946 8.19565 8140 ft 285 kts 107°
2026-05-07 20:03 50.14027 8.22266 7878 ft 283 kts 131°
2026-05-07 20:04 50.12537 8.24160 7622 ft 280 kts 154°
2026-05-07 20:04 50.10677 8.25016 7374 ft 278 kts 177°
2026-05-07 20:04 50.08781 8.24691 7139 ft 274 kts 199°
2026-05-07 20:04 50.07123 8.23277 6888 ft 271 kts 221°
2026-05-07 20:05 50.05939 8.21022 6476 ft 269 kts 244°
2026-05-07 20:05 50.05212 8.18393 6147 ft 267 kts 248°
2026-05-07 20:05 50.04498 8.15725 5884 ft 267 kts 248°
2026-05-07 20:05 50.03778 8.13053 5625 ft 267 kts 248°
2026-05-07 20:06 50.03055 8.10383 5367 ft 267 kts 248°
2026-05-07 20:06 50.02365 8.07706 5121 ft 266 kts 250°
2026-05-07 20:06 50.01706 8.05012 5007 ft 266 kts 250°
2026-05-07 20:06 50.01058 8.02314 5010 ft 267 kts 250°
2026-05-07 20:07 50.00412 7.99611 5009 ft 267 kts 250°
2026-05-07 20:07 49.99757 7.96905 5008 ft 267 kts 250°
2026-05-07 20:07 49.99099 7.94203 5008 ft 265 kts 250°
2026-05-07 20:07 49.98323 7.91728 5004 ft 247 kts 234°
2026-05-07 20:08 49.97100 7.89954 5004 ft 239 kts 211°
2026-05-07 20:08 49.95554 7.89066 5003 ft 238 kts 188°
2026-05-07 20:08 49.93909 7.89176 5003 ft 238 kts 165°
2026-05-07 20:08 49.92417 7.90262 5008 ft 238 kts 142°
2026-05-07 20:09 49.91325 7.92123 5004 ft 237 kts 119°
2026-05-07 20:09 49.90759 7.94498 5007 ft 236 kts 96°
2026-05-07 20:09 49.90904 7.97000 5008 ft 234 kts 70°
2026-05-07 20:10 49.92061 8.01707 5004 ft 235 kts 68°
2026-05-07 20:10 49.92645 8.04075 5009 ft 235 kts 68°
2026-05-07 20:10 49.93225 8.06448 5014 ft 235 kts 68°
2026-05-07 20:10 49.93804 8.08817 5009 ft 235 kts 68°
2026-05-07 20:11 49.94384 8.11191 5014 ft 235 kts 68°
2026-05-07 20:11 49.94963 8.13564 5015 ft 235 kts 68°
2026-05-07 20:11 49.95532 8.15900 5009 ft 229 kts 68°
2026-05-07 20:11 49.96085 8.18171 4869 ft 222 kts 68°
2026-05-07 20:12 49.96632 8.20418 4578 ft 222 kts 68°
2026-05-07 20:12 49.97179 8.22669 4257 ft 223 kts 68°
2026-05-07 20:12 49.97731 8.24942 3932 ft 224 kts 68°
2026-05-07 20:12 49.98282 8.27214 3613 ft 225 kts 68°
2026-05-07 20:13 49.98835 8.29500 3283 ft 226 kts 68°
2026-05-07 20:13 49.99377 8.31737 2957 ft 218 kts 69°
2026-05-07 20:13 49.99895 8.33882 2644 ft 206 kts 69°
2026-05-07 20:13 50.00386 8.35916 2369 ft 196 kts 69°
2026-05-07 20:14 50.00846 8.37823 2094 ft 181 kts 69°
2026-05-07 20:14 50.01268 8.39572 1837 ft 165 kts 69°
2026-05-07 20:14 50.01657 8.41184 1588 ft 154 kts 69°
2026-05-07 20:14 50.02020 8.42692 1366 ft 145 kts 69°
2026-05-07 20:15 50.02366 8.44130 1156 ft 140 kts 69°
2026-05-07 20:15 50.02703 8.45532 953 ft 137 kts 68°
2026-05-07 20:15 50.03037 8.46906 752 ft 135 kts 69°
2026-05-07 20:15 50.03353 8.48276 558 ft 134 kts 68°
2026-05-07 20:16 50.03680 8.49635 381 ft 134 kts 68°
2026-05-07 20:16 50.04003 8.50926 324 ft 114 kts 70°
2026-05-07 20:16 50.04228 8.51885 334 ft 73 kts 69°
2026-05-07 20:16 50.04372 8.52484 350 ft 31 kts 70°
2026-05-07 20:17 50.04395 8.52786 355 ft 13 kts 95°
2026-05-07 20:17 50.04379 8.52933 354 ft 14 kts 101°
2026-05-07 20:17 50.04362 8.53079 355 ft 14 kts 100°
2026-05-07 20:17 50.04349 8.53222 361 ft 12 kts 95°
2026-05-07 20:18 50.04358 8.53337 373 ft 11 kts 73°
2026-05-07 20:18 50.04391 8.53485 375 ft 18 kts 75°
2026-05-07 20:18 50.04409 8.53719 375 ft 24 kts 84°
2026-05-07 20:18 50.04427 8.53995 375 ft 27 kts 84°
2026-05-07 20:19 50.04446 8.54277 375 ft 26 kts 83°
2026-05-07 20:19 50.04446 8.54516 368 ft 23 kts 104°
2026-05-07 20:19 50.04390 8.54683 362 ft 19 kts 129°
2026-05-07 20:19 50.04249 8.54808 358 ft 28 kts 161°
2026-05-07 20:20 50.04088 8.54900 355 ft 26 kts 159°
2026-05-07 20:20 50.03998 8.54956 356 ft 12 kts 161°
2026-05-07 20:20 50.03901 8.55009 355 ft 15 kts 160°
2026-05-07 20:20 50.03852 8.55128 357 ft 17 kts 74°
2026-05-07 20:21 50.03899 8.55317 353 ft 21 kts 69°
2026-05-07 20:21 50.03949 8.55453 351 ft 14 kts 28°
2026-05-07 20:21 50.04050 8.55423 355 ft 17 kts 340°
2026-05-07 20:21 50.04124 8.55474 353 ft 15 kts 68°
2026-05-07 20:22 50.04166 8.55645 354 ft 19 kts 70°
2026-05-07 20:22 50.04212 8.55838 358 ft 16 kts 81°
2026-05-07 20:22 50.04134 8.55951 356 ft 19 kts 160°
2026-05-07 20:22 50.04076 8.56064 351 ft 17 kts 79°
2026-05-07 20:23 50.04123 8.56254 356 ft 21 kts 69°
2026-05-07 20:23 50.04157 8.56394 360 ft 14 kts 70°
2026-05-07 20:23 50.04195 8.56554 362 ft 17 kts 69°
2026-05-07 20:23 50.04238 8.56735 358 ft 13 kts 70°
2026-05-07 20:24 50.04316 8.56817 360 ft 16 kts
2026-05-07 20:24 50.04439 8.56854 362 ft 20 kts 10°
2026-05-07 20:24 50.04588 8.56906 361 ft 25 kts 15°
2026-05-07 20:24 50.04744 8.56998 363 ft 18 kts 25°
2026-05-07 20:25 50.04851 8.57075 358 ft 14 kts 24°
2026-05-07 20:25 50.04885 8.57108 359 ft 7 kts 40°
2026-05-07 20:25 50.04890 8.57119 365 ft 0 kts 58°
2026-05-07 20:26 50.04897 8.57141 361 ft 4 kts 66°
2026-05-07 20:27 50.04887 8.57159 361 ft 1 kts 173°
2026-05-07 20:27 50.04880 8.57158 359 ft 0 kts 175°